[[{"header":{"parameterUnit":"m.s-1","parameterCategory":2,"la1":30.2991,"la2":30.254,"lo1":-89.0895,"lo2":-89.0444,"dy":0.0017,"dx":0.0017,"nx":28,"ny":28,"refTime":"2024-07-27T21:00:00:Z","depth":"0","parameterNumber":2,"parameterNumberName":"U-component_of_CURRENTS"},"data":[0,0,0,0,0,0,0,0,0,0,0,0,0,0,0,0,0,0,0,0,0,0,0,0,0,0,0,0,0,0,0,0,0,0,0,0,0,0,0,0,0,0,0,0,0,0,0,0,0,0,0,0,0,0,0,0,0,0,0.2508,0.2509,0,0.2519,0.2519,0.2518,0.2495,0.2495,0.2495,0.2495,0.2477,0.2477,0.2477,0,0,0,0,0,0,0,0,0,0,0,0,0,0.2447,0.2448,0.2508,0.2509,0.2509,0.2519,0.2519,0.2518,0.2495,0.2495,0.2495,0.2495,0.2477,0.2477,0.2477,0,0,0,0,0,0,0,0,0,0,0,0,0,0.2462,0.2448,0.2508,0.2504,0.2504,0.2519,0.2519,0.2518,0.2495,0.2495,0.2495,0.2494,0.2477,0.2477,0.2477,0.248,0,0,0.2475,0.2475,0,0,0,0,0,0,0,0,0.2461,0.2463,0.2503,0.2504,0.2504,0.2511,0.2491,0.2506,0.2495,0.2492,0.2495,0.2494,0.249,0.2489,0.2483,0.2479,0.2478,0.2475,0.2475,0.2475,0.2475,0,0,0,0,0,0,0,0.246,0.2463,0.2506,0.2504,0.2505,0.2495,0.2496,0.2493,0.2487,0.2492,0.2492,0.2503,0.2489,0.2483,0.2482,0.2478,0.2475,0.2475,0.2475,0.2474,0.249,0.2491,0,0,0,0,0,0,0.2472,0.2462,0.2506,0.2507,0.2488,0.2497,0.2498,0.2504,0.2488,0.2487,0.2504,0.2502,0.2484,0.2483,0.2482,0.251,0.2475,0.2474,0.2474,0.2489,0.249,0.2491,0,0,0,0,0,0,0.2471,0.2476,0.2506,0.249,0.2494,0.2499,0.2506,0.2505,0.2506,0.2498,0.2495,0.2508,0.2484,0.2482,0.2496,0.2508,0.2474,0.2474,0.2489,0.249,0.249,0.255,0,0,0,0,0,0,0.2469,0.2475,0.2483,0.2491,0.2495,0.2525,0.2507,0.2505,0.2516,0.2514,0.2501,0.2498,0.2484,0.2497,0.2496,0.2507,0.2474,0.2488,0.2489,0.249,0.2547,0.2552,0.2557,0,0,0,0,0,0.2467,0.2492,0.2483,0.2489,0.2506,0.2526,0.2527,0.2525,0.2516,0.2523,0.2519,0.2499,0.2503,0.2498,0.2496,0.2507,0.2487,0.2489,0.249,0.2544,0.2551,0.2557,0,0,0,0,0,0,0.2471,0.2492,0.2483,0.2512,0.2519,0.2525,0.2542,0.2532,0.2533,0.2532,0.2514,0.2513,0.2528,0.2511,0.2505,0.2514,0.2489,0.249,0.2531,0.2537,0.2542,0.2559,0.2473,0,0,0,0,0,0.2476,0.2497,0.2507,0.2529,0.254,0.2538,0.2546,0.2541,0.2546,0.2545,0.2534,0.2526,0.2531,0.253,0.2527,0.2536,0.2574,0.2539,0.2544,0.2549,0.2561,0.2628,0.2642,0.2496,0.2496,0.2496,0,0,0.2479,0.25,0.2506,0.2531,0.254,0.2547,0.2541,0.2561,0.2561,0.2544,0.2546,0.2548,0.2539,0.2551,0.2555,0.2539,0.2618,0.2551,0.2555,0.2565,0.2631,0.2646,0.2659,0.2497,0.2497,0.2496,0,0,0.2502,0.2521,0.254,0.2549,0.2571,0.2569,0.2577,0.2581,0.2582,0.2588,0.258,0.2592,0.2585,0.2586,0.2585,0.2616,0.2647,0.2613,0.2651,0.2716,0.273,0.2741,0.2846,0.2867,0.2611,0.2612,0.2612,0,0.2498,0.2526,0.2548,0.2566,0.2578,0.2579,0.2589,0.2591,0.2593,0.2609,0.2594,0.2615,0.2599,0.2632,0.2642,0.2628,0.2694,0.2629,0.2726,0.2738,0.275,0.2854,0.2876,0.2615,0.2614,0.2614,0.2614,0,0.2521,0.2543,0.2565,0.2579,0.2594,0.261,0.2617,0.2627,0.2628,0.2632,0.267,0.2664,0.2679,0.2674,0.2667,0.2736,0.277,0.2732,0.2716,0.2769,0.2875,0.2897,0.2619,0.2618,0.2617,0.2616,0,0,0.2494,0.2563,0.2563,0.2578,0.2601,0.2613,0.2634,0.2659,0.2687,0.2688,0.2736,0.2737,0.2752,0.2753,0.2751,0.2801,0.2938,0.281,0.2812,0.2927,0.3141,0.3195,0.3225,0.2933,0.2936,0.2939,0.3198,0,0.2493,0.2533,0.2568,0.2589,0.2608,0.2631,0.2657,0.2681,0.2706,0.2752,0.2772,0.2813,0.2777,0.2805,0.2849,0.2918,0.2994,0.2874,0.3062,0.3068,0.3119,0.325,0.3116,0.3338,0.3219,0.3223,0.3226,0,0.2484,0.2519,0.2549,0.2612,0.2624,0.2636,0.269,0.2721,0.2792,0.2821,0.2869,0.2893,0.2973,0.2927,0.3088,0.3027,0.3095,0.3143,0.3153,0.3197,0.3163,0.3257,0.3383,0.3251,0.326,0.3257,0.3255,0,0.2443,0.25,0.2528,0.2541,0.2608,0.2634,0.2675,0.2741,0.278,0.2884,0.2921,0.3015,0.3066,0.3167,0.3252,0.3198,0.3448,0.3373,0.3494,0.35,0.3418,0.3411,0.3442,0.3501,0.3501,0.35,0.3499,0,0.2423,0.2442,0.2513,0.2524,0.2562,0.2629,0.2682,0.2739,0.283,0.2892,0.2962,0.3024,0.3129,0.3258,0.3334,0.3516,0.3519,0.3556,0.3582,0.3438,0.343,0.3333,0.3246,0.351,0.3507,0.3505,0.3504,0,0.237,0.2419,0.245,0.2523,0.2544,0.2576,0.2664,0.2708,0.281,0.2896,0.2937,0.3069,0.3263,0.3387,0.358,0.3625,0.3693,0.3835,0.369,0.3694,0.3669,0.359,0.3592,0.3498,0.4037,0.404,0.4042,0,0.2346,0.236,0.2424,0.2439,0.2471,0.2527,0.2567,0.2679,0.2734,0.2914,0.2958,0.3166,0.3287,0.3624,0.3777,0.3996,0.3806,0.3988,0.3837,0.3706,0.3637,0.3462,0.3366,0.3768,0.3769,0.3769,0.3769,0,0.2293,0.2317,0.2342,0.2374,0.2408,0.2448,0.2526,0.2557,0.2712,0.28,0.2958,0.3084,0.3416,0.359,0.3888,0.3987,0.3783,0.4,0.3876,0.3468,0.3266,0.3172,0.3587,0.377,0.377,0.3769,0.3769,0.3769,0.2239,0.2239,0.2272,0.23,0.2332,0.2365,0.2376,0.2471,0.256,0.2693,0.2884,0.3041,0.3331,0.3736,0.3837,0.3904,0.384,0.3796,0.3735,0.3591,0.341,0.3873,0.4064,0.4066,0.4067,0.4068,0.4069,0,0.2157,0.2178,0.2198,0.2222,0.2223,0.2276,0.2338,0.2345,0.2415,0.2585,0.273,0.2998,0.3216,0.3445,0.3673,0.3618,0.3445,0.352,0.3179,0.3116,0.355,0.3445,0.3493,0.3494,0.3494,0.3494,0.3494,0.3494,0.2116,0.211,0.2132,0.2111,0.2125,0.2104,0.2121,0.2153,0.2243,0.2371,0.2508,0.2682,0.3004,0.3255,0.3304,0.3272,0.3001,0.2921,0.2897,0.3122,0.3138,0.3153,0.3033,0.2994,0.2993,0.2322,0.2316,0.2312]},{"header":{"parameterUnit":"m.s-1","parameterCategory":2,"la1":30.2991,"la2":30.254,"lo1":-89.0895,"lo2":-89.0444,"dy":0.0017,"dx":0.0017,"nx":28,"ny":28,"refTime":"2024-07-27T21:00:00:Z","depth":"0","parameterNumber":3,"parameterNumberName":"V-component_of_CURRENTS"},"data":[0,0,0,0,0,0,0,0,0,0,0,0,0,0,0,0,0,0,0,0,0,0,0,0,0,0,0,0,0,0,0,0,0,0,0,0,0,0,0,0,0,0,0,0,0,0,0,0,0,0,0,0,0,0,0,0,0,0,-0.0845,-0.0846,0,-0.0926,-0.0927,-0.0928,-0.0973,-0.0973,-0.0974,-0.0974,-0.1095,-0.1098,-0.1101,0,0,0,0,0,0,0,0,0,0,0,0,0,-0.079,-0.0791,-0.0845,-0.0846,-0.0847,-0.0926,-0.0927,-0.0928,-0.0973,-0.0973,-0.0974,-0.0974,-0.1094,-0.1097,-0.1101,0,0,0,0,0,0,0,0,0,0,0,0,0,-0.0837,-0.0791,-0.0845,-0.0879,-0.0883,-0.0926,-0.0927,-0.0928,-0.0973,-0.0973,-0.0974,-0.0974,-0.1092,-0.1097,-0.1102,-0.1126,0,0,-0.1116,-0.1118,0,0,0,0,0,0,0,0,-0.0834,-0.0839,-0.0873,-0.0877,-0.0881,-0.094,-0.0952,-0.0996,-0.0973,-0.0939,-0.0974,-0.0974,-0.1047,-0.1055,-0.1069,-0.1131,-0.1136,-0.1116,-0.1119,-0.1121,-0.1122,0,0,0,0,0,0,0,-0.0831,-0.0836,-0.0877,-0.0874,-0.0879,-0.0911,-0.0918,-0.0961,-0.0991,-0.0942,-0.0945,-0.0955,-0.1049,-0.1064,-0.1072,-0.1138,-0.1116,-0.112,-0.1123,-0.1125,-0.1216,-0.1216,0,0,0,0,0,0,-0.0817,-0.0832,-0.0875,-0.088,-0.0858,-0.0912,-0.0919,-0.0921,-0.099,-0.1,-0.0954,-0.0956,-0.1056,-0.1067,-0.1077,-0.1095,-0.1121,-0.1125,-0.1128,-0.1216,-0.1216,-0.1216,0,0,0,0,0,0,-0.0816,-0.082,-0.0871,-0.0858,-0.0867,-0.0912,-0.0914,-0.0922,-0.0941,-0.0999,-0.101,-0.0965,-0.1057,-0.107,-0.1113,-0.1101,-0.1127,-0.1131,-0.1217,-0.1216,-0.1216,-0.1141,0,0,0,0,0,0,-0.0814,-0.0819,-0.0816,-0.0857,-0.0867,-0.0889,-0.0914,-0.0924,-0.0946,-0.0949,-0.1012,-0.1023,-0.1058,-0.1106,-0.1118,-0.1108,-0.1135,-0.1217,-0.1217,-0.1216,-0.1144,-0.1138,-0.1133,0,0,0,0,0,-0.0811,-0.0811,-0.0815,-0.0821,-0.0862,-0.0889,-0.0897,-0.0931,-0.0946,-0.0949,-0.0992,-0.1021,-0.111,-0.111,-0.1124,-0.1114,-0.1218,-0.1217,-0.1216,-0.1147,-0.114,-0.1134,0,0,0,0,0,0,-0.0776,-0.0817,-0.0822,-0.0831,-0.0852,-0.0897,-0.0908,-0.0929,-0.0966,-0.0971,-0.1025,-0.1039,-0.1071,-0.1105,-0.1103,-0.1138,-0.1165,-0.1167,-0.1108,-0.1102,-0.1096,-0.1069,-0.1139,0,0,0,0,0,-0.0767,-0.0782,-0.0814,-0.0817,-0.0828,-0.0866,-0.0882,-0.0901,-0.0939,-0.0956,-0.0996,-0.104,-0.1079,-0.1099,-0.1139,-0.1163,-0.1152,-0.1164,-0.1158,-0.1154,-0.1141,-0.1126,-0.1117,-0.1213,-0.1213,-0.1213,0,0,-0.0746,-0.0777,-0.0779,-0.0811,-0.0833,-0.0833,-0.0876,-0.0896,-0.0896,-0.0964,-0.0981,-0.1028,-0.1082,-0.1106,-0.1122,-0.1132,-0.1112,-0.1153,-0.1148,-0.1138,-0.1124,-0.1115,-0.1106,-0.1213,-0.1213,-0.1213,0,0,-0.0723,-0.0745,-0.0749,-0.0763,-0.0796,-0.0816,-0.0818,-0.0857,-0.0877,-0.0902,-0.0947,-0.098,-0.1042,-0.1069,-0.1094,-0.1083,-0.1087,-0.11,-0.1048,-0.1034,-0.1025,-0.1017,-0.0948,-0.0935,-0.1093,-0.1092,-0.1092,0,-0.0691,-0.0702,-0.075,-0.0754,-0.0754,-0.0801,-0.0784,-0.0813,-0.0858,-0.0865,-0.0896,-0.0966,-0.1019,-0.1036,-0.1037,-0.1068,-0.1045,-0.1067,-0.1024,-0.1016,-0.101,-0.0941,-0.0928,-0.1089,-0.1089,-0.1089,-0.109,0,-0.0665,-0.067,-0.0674,-0.0687,-0.0694,-0.0692,-0.0724,-0.0736,-0.0766,-0.079,-0.082,-0.089,-0.0923,-0.095,-0.0997,-0.0981,-0.097,-0.1019,-0.1033,-0.0995,-0.0925,-0.0913,-0.1083,-0.1085,-0.1086,-0.1087,0,0,-0.0591,-0.0643,-0.0638,-0.0631,-0.0655,-0.0652,-0.0654,-0.0662,-0.0645,-0.0706,-0.0686,-0.0775,-0.0809,-0.0839,-0.0898,-0.0899,-0.0833,-0.0937,-0.0938,-0.0854,-0.0752,-0.0743,-0.0728,-0.0876,-0.0875,-0.0873,-0.0705,0,-0.0544,-0.0535,-0.0574,-0.0537,-0.0525,-0.056,-0.0548,-0.0562,-0.0584,-0.0579,-0.0657,-0.0664,-0.0768,-0.0771,-0.0797,-0.0827,-0.0804,-0.0871,-0.0814,-0.0811,-0.0798,-0.0716,-0.0727,-0.058,-0.0693,-0.069,-0.0689,0,-0.0491,-0.0496,-0.0458,-0.0458,-0.0452,-0.0431,-0.04,-0.0402,-0.0419,-0.0435,-0.0467,-0.0519,-0.0541,-0.0633,-0.0646,-0.0683,-0.0706,-0.0731,-0.0726,-0.0738,-0.0781,-0.0647,-0.0553,-0.0724,-0.067,-0.0671,-0.0673,0,-0.0402,-0.0407,-0.0373,-0.0368,-0.0374,-0.0353,-0.0347,-0.0347,-0.0333,-0.0327,-0.0294,-0.0354,-0.035,-0.0411,-0.0489,-0.0551,-0.048,-0.0568,-0.0569,-0.0566,-0.0574,-0.0576,-0.0631,-0.0554,-0.0554,-0.0555,-0.0555,0,-0.0332,-0.0304,-0.0326,-0.0302,-0.0241,-0.0269,-0.0205,-0.0206,-0.0192,-0.014,-0.0209,-0.0165,-0.0298,-0.0297,-0.0394,-0.0416,-0.0395,-0.0522,-0.0522,-0.0545,-0.0546,-0.0699,-0.0799,-0.0548,-0.055,-0.0551,-0.0552,0,-0.0244,-0.0264,-0.0221,-0.0212,-0.0201,-0.0151,-0.0123,-0.0081,-0.0063,0.0012,0.0028,0.001,0.0023,-0.0083,-0.0139,-0.0257,-0.0369,-0.0314,-0.0305,-0.0309,-0.0513,-0.0608,-0.0602,-0.0652,-0.0277,-0.0276,-0.0275,0,-0.0203,-0.0174,-0.0141,-0.0107,-0.0102,-0.005,-0.0014,-0.0011,0.0036,0.0124,0.0176,0.0217,0.0256,0.02,0.0011,-0.0085,-0.027,-0.0178,-0.0331,-0.049,-0.0596,-0.0663,-0.0712,-0.0282,-0.0281,-0.028,-0.028,0,-0.0116,-0.0103,-0.0069,-0.0009,0.0039,0.0091,0.0143,0.02,0.0229,0.0325,0.045,0.0503,0.0431,0.033,0.017,0.0043,-0.03,-0.0167,-0.0347,-0.0603,-0.0662,-0.0722,-0.0394,-0.0273,-0.0274,-0.0274,-0.0275,-0.0275,-0.0046,-0.0001,0.0037,0.0096,0.0154,0.0235,0.0311,0.0383,0.0504,0.0677,0.067,0.0818,0.0592,0.0365,0.0161,-0.0239,-0.0244,-0.0391,-0.0478,-0.0519,-0.0627,-0.0258,-0.0153,-0.0153,-0.0153,-0.0152,-0.0152,0,0.0027,0.0065,0.013,0.021,0.0293,0.0298,0.0416,0.0519,0.0705,0.087,0.1005,0.1003,0.0705,0.0352,-0.0177,-0.0493,-0.0636,-0.0676,-0.0812,-0.0839,-0.0517,-0.0585,-0.0553,-0.0553,-0.0552,-0.0552,-0.0552,-0.0552,0.0072,0.0137,0.0163,0.031,0.0376,0.0512,0.0599,0.0776,0.0923,0.1189,0.1317,0.137,0.1094,0.0059,-0.0681,-0.0867,-0.109,-0.1118,-0.1214,-0.1074,-0.1056,-0.104,-0.1131,-0.1213,-0.1214,-0.1515,-0.1518,-0.1521]}],[{"header":{"parameterUnit":"m.s-1","parameterCategory":2,"la1":30.2991,"la2":30.254,"lo1":-89.0895,"lo2":-89.0444,"dy":0.0017,"dx":0.0017,"nx":28,"ny":28,"refTime":"2024-07-27T21:00:00:Z","depth":"2","parameterNumber":2,"parameterNumberName":"U-component_of_CURRENTS"},"data":[0,0,0,0,0,0,0,0,0,0,0,0,0,0,0,0,0,0,0,0,0,0,0,0,0,0,0,0,0,0,0,0,0,0,0,0,0,0,0,0,0,0,0,0,0,0,0,0,0,0,0,0,0,0,0,0,0,0,0.04,0.04,0,0.0457,0.0458,0.0459,0.0525,0.0526,0.0527,0.0527,0.0557,0.0557,0.0557,0,0,0,0,0,0,0,0,0,0,0,0,0,0.0297,0.0298,0.04,0.04,0.0401,0.0457,0.0458,0.0459,0.0525,0.0526,0.0527,0.0528,0.0557,0.0557,0.0557,0,0,0,0,0,0,0,0,0,0,0,0,0,0.0348,0.0299,0.0399,0.0439,0.0443,0.0457,0.0458,0.0459,0.0525,0.0526,0.0527,0.0528,0.0557,0.0557,0.0557,0.0531,0,0,0.0557,0.0557,0,0,0,0,0,0,0,0,0.0345,0.0352,0.0433,0.0437,0.0441,0.0484,0.0432,0.0481,0.0524,0.0495,0.0528,0.0529,0.0528,0.0531,0.0541,0.0532,0.0533,0.0557,0.0557,0.0557,0.0557,0,0,0,0,0,0,0,0.0341,0.0349,0.0424,0.0433,0.0438,0.0437,0.0446,0.0442,0.0504,0.0498,0.0502,0.0506,0.0531,0.0541,0.0542,0.0534,0.0557,0.0557,0.0557,0.0557,0.0647,0.065,0,0,0,0,0,0,0.0333,0.0346,0.0422,0.0425,0.0394,0.0438,0.0448,0.047,0.0505,0.0511,0.0505,0.0509,0.054,0.0542,0.0543,0.0637,0.0557,0.0557,0.0557,0.0645,0.0648,0.0651,0,0,0,0,0,0,0.0331,0.034,0.042,0.0385,0.0395,0.0439,0.0462,0.047,0.0503,0.0511,0.0517,0.0532,0.0541,0.0543,0.0589,0.0634,0.0557,0.0557,0.0642,0.0646,0.0649,0.0744,0,0,0,0,0,0,0.0328,0.0339,0.0358,0.0385,0.0396,0.0453,0.0461,0.0471,0.0501,0.0508,0.0535,0.0538,0.0543,0.059,0.0589,0.0632,0.0557,0.0639,0.0644,0.0648,0.0738,0.0751,0.0762,0,0,0,0,0,0.0324,0.0349,0.0359,0.0368,0.042,0.0454,0.0461,0.0496,0.0502,0.0528,0.056,0.0538,0.0619,0.0592,0.0591,0.0634,0.0637,0.0642,0.0648,0.0733,0.0748,0.0761,0,0,0,0,0,0,0.0322,0.0358,0.037,0.0407,0.0438,0.0466,0.0494,0.0502,0.0546,0.0558,0.0562,0.0569,0.0628,0.0615,0.0586,0.0676,0.0626,0.0631,0.0691,0.0705,0.0717,0.0754,0.0557,0,0,0,0,0,0.0325,0.0353,0.0385,0.0417,0.0437,0.0464,0.0482,0.0503,0.0537,0.0558,0.058,0.0608,0.0643,0.0663,0.0685,0.0722,0.0785,0.0753,0.0765,0.0775,0.0807,0.0947,0.0975,0.0668,0.0668,0.0668,0,0,0.0329,0.0354,0.037,0.0417,0.0447,0.049,0.0482,0.0521,0.0567,0.055,0.0629,0.0645,0.0663,0.0726,0.075,0.0725,0.09,0.0781,0.079,0.0817,0.0956,0.0986,0.1013,0.0672,0.0671,0.0671,0,0,0.0354,0.0383,0.0418,0.0448,0.0492,0.0515,0.0529,0.0572,0.061,0.0667,0.0683,0.074,0.0769,0.0818,0.0837,0.0922,0.0955,0.0915,0.1007,0.1142,0.117,0.1194,0.1337,0.1373,0.0923,0.0923,0.0923,0,0.0365,0.0412,0.0433,0.0477,0.0509,0.0532,0.058,0.0621,0.0675,0.0718,0.0709,0.082,0.0825,0.093,0.0971,0.0951,0.1039,0.0948,0.1161,0.1187,0.121,0.135,0.1389,0.0928,0.0928,0.0927,0.0927,0,0.0416,0.0458,0.0486,0.0553,0.0589,0.0634,0.0686,0.074,0.0775,0.0814,0.0922,0.0956,0.1036,0.1036,0.1031,0.1194,0.1208,0.1159,0.1129,0.1248,0.1386,0.1426,0.0936,0.0934,0.0933,0.0931,0,0,0.0452,0.0508,0.0525,0.0562,0.0633,0.0671,0.0758,0.0846,0.0926,0.0983,0.1104,0.1167,0.12,0.1228,0.1236,0.1341,0.1579,0.1333,0.1338,0.1482,0.1915,0.1706,0.1729,0.1578,0.1584,0.159,0.1954,0,0.05,0.0568,0.0595,0.0683,0.0729,0.0779,0.086,0.094,0.1018,0.1142,0.1205,0.1314,0.127,0.1331,0.1438,0.1538,0.1684,0.1487,0.1773,0.1782,0.1587,0.1766,0.1602,0.1893,0.1992,0.1999,0.2004,0,0.0562,0.0597,0.0672,0.075,0.0781,0.0846,0.099,0.1061,0.1218,0.1285,0.1411,0.1469,0.1646,0.1583,0.187,0.1753,0.187,0.1936,0.1951,0.1751,0.1644,0.1786,0.196,0.2069,0.2064,0.2059,0.2055,0,0.058,0.0663,0.072,0.0749,0.0841,0.0912,0.0978,0.1116,0.1208,0.1406,0.1508,0.169,0.1818,0.1985,0.2105,0.2038,0.241,0.2327,0.2265,0.2253,0.2164,0.2129,0.2581,0.2581,0.258,0.2579,0.2578,0,0.0621,0.0683,0.0741,0.0778,0.0894,0.094,0.1088,0.1185,0.1343,0.1479,0.1598,0.1752,0.1931,0.2126,0.2226,0.2366,0.2528,0.2343,0.2347,0.2187,0.2151,0.2316,0.2281,0.2592,0.2589,0.2587,0.2584,0,0.0664,0.0681,0.0796,0.0891,0.0909,0.1025,0.1152,0.1243,0.1389,0.1586,0.1663,0.1884,0.212,0.2269,0.2554,0.2505,0.2656,0.2669,0.2456,0.2423,0.2397,0.2362,0.2679,0.2675,0.2671,0.2668,0.2666,0,0.0693,0.0727,0.0879,0.0934,0.0993,0.111,0.1158,0.1283,0.1378,0.1654,0.175,0.2023,0.2184,0.2477,0.2502,0.2658,0.2699,0.2518,0.2311,0.2443,0.2416,0.2386,0.2357,0.229,0.2285,0.2281,0.2277,0,0.0768,0.0842,0.0933,0.0989,0.1072,0.1173,0.1258,0.1338,0.1489,0.1654,0.1892,0.2043,0.2271,0.231,0.2398,0.2443,0.2452,0.2421,0.2738,0.2197,0.2079,0.2049,0.2035,0.2239,0.2243,0.2245,0.2248,0.2249,0.0848,0.0946,0.0995,0.1069,0.1162,0.1228,0.129,0.137,0.1519,0.1721,0.1858,0.1996,0.2052,0.2077,0.2113,0.213,0.2251,0.2149,0.2165,0.2184,0.1981,0.1852,0.1937,0.1939,0.1941,0.1943,0.1944,0,0.0924,0.0959,0.1008,0.1122,0.1207,0.1237,0.1326,0.1364,0.1522,0.1637,0.1786,0.1658,0.1688,0.1799,0.1761,0.1736,0.1759,0.1683,0.1713,0.1752,0.1786,0.1562,0.1409,0.1408,0.1406,0.1404,0,0,0.0949,0.0991,0.0987,0.1094,0.1187,0.1257,0.1324,0.1389,0.1437,0.1485,0.1505,0.1562,0.1664,0.1454,0.147,0.1447,0.1584,0.1405,0.1836,0.1907,0.1938,0.2058,0.1753,0,0,0,0,0]},{"header":{"parameterUnit":"m.s-1","parameterCategory":2,"la1":30.2991,"la2":30.254,"lo1":-89.0895,"lo2":-89.0444,"dy":0.0017,"dx":0.0017,"nx":28,"ny":28,"refTime":"2024-07-27T21:00:00:Z","depth":"2","parameterNumber":3,"parameterNumberName":"V-component_of_CURRENTS"},"data":[0,0,0,0,0,0,0,0,0,0,0,0,0,0,0,0,0,0,0,0,0,0,0,0,0,0,0,0,0,0,0,0,0,0,0,0,0,0,0,0,0,0,0,0,0,0,0,0,0,0,0,0,0,0,0,0,0,0,0.0449,0.0449,0,0.0417,0.0417,0.0417,0.0354,0.0352,0.0351,0.035,0.0291,0.029,0.029,0,0,0,0,0,0,0,0,0,0,0,0,0,0.0435,0.0435,0.0449,0.0449,0.0449,0.0417,0.0417,0.0417,0.0354,0.0352,0.0351,0.0349,0.0291,0.029,0.029,0,0,0,0,0,0,0,0,0,0,0,0,0,0.0427,0.0436,0.045,0.0413,0.0409,0.0417,0.0417,0.0417,0.0354,0.0352,0.035,0.0348,0.0291,0.029,0.029,0.0326,0,0,0.0288,0.0288,0,0,0,0,0,0,0,0,0.0427,0.0427,0.0419,0.0415,0.0411,0.0387,0.039,0.0385,0.0355,0.0376,0.035,0.0347,0.0321,0.0318,0.0318,0.0323,0.0321,0.0288,0.0288,0.0288,0.0287,0,0,0,0,0,0,0,0.0428,0.0428,0.0437,0.0418,0.0414,0.039,0.0387,0.0389,0.036,0.0374,0.0369,0.0365,0.0319,0.0319,0.0316,0.032,0.0288,0.0288,0.0287,0.0287,0.0219,0.0217,0,0,0,0,0,0,0.0434,0.0429,0.0438,0.0436,0.0414,0.0392,0.0389,0.0397,0.036,0.0353,0.0367,0.0362,0.032,0.0317,0.0314,0.0257,0.0288,0.0287,0.0287,0.022,0.0218,0.0217,0,0,0,0,0,0,0.0434,0.0436,0.044,0.043,0.0429,0.0395,0.0405,0.0398,0.0364,0.0355,0.0347,0.0335,0.0319,0.0314,0.0298,0.0257,0.0287,0.0286,0.0222,0.022,0.0217,0.0206,0,0,0,0,0,0,0.0434,0.0436,0.0437,0.0431,0.043,0.0437,0.0406,0.0398,0.0366,0.0359,0.0327,0.0321,0.0317,0.0299,0.0298,0.0257,0.0286,0.0224,0.0221,0.0218,0.0208,0.0203,0.0199,0,0,0,0,0,0.0434,0.0444,0.0438,0.0438,0.0435,0.0438,0.0435,0.0404,0.0366,0.0362,0.0336,0.032,0.0278,0.0299,0.0297,0.0256,0.0225,0.0222,0.0218,0.021,0.0204,0.0199,0,0,0,0,0,0,0.0437,0.0439,0.0431,0.044,0.0436,0.0426,0.0417,0.039,0.0367,0.0348,0.0327,0.0321,0.0286,0.0276,0.0299,0.0223,0.0239,0.0235,0.0232,0.0227,0.0223,0.0226,0.0286,0,0,0,0,0,0.0442,0.0441,0.0446,0.0447,0.045,0.0428,0.0418,0.0397,0.0379,0.0364,0.0335,0.03,0.0278,0.0258,0.0245,0.0221,0.0207,0.0182,0.0178,0.0174,0.0173,0.0104,0.0093,0.0206,0.0206,0.0206,0,0,0.0441,0.0439,0.0438,0.0446,0.0438,0.044,0.0416,0.0401,0.0379,0.0365,0.0317,0.0295,0.0271,0.0239,0.0218,0.022,0.0141,0.017,0.0167,0.0168,0.0099,0.0088,0.0079,0.0203,0.0204,0.0204,0,0,0.0442,0.0443,0.0447,0.0447,0.0437,0.043,0.0419,0.0398,0.0368,0.0341,0.0309,0.0267,0.0233,0.0203,0.0186,0.015,0.0128,0.0124,0.0099,0.0032,0.0022,0.0013,0.0015,0.0007,0.0113,0.0113,0.0113,0,0.0434,0.0447,0.0447,0.0451,0.0444,0.0422,0.0421,0.04,0.0364,0.0338,0.032,0.0237,0.0215,0.0165,0.0144,0.014,0.0117,0.0126,0.0027,0.0018,0.0009,0.0013,0.0003,0.0112,0.0112,0.0112,0.0112,0,0.0445,0.0449,0.0451,0.0448,0.0444,0.0439,0.0421,0.0391,0.0344,0.0314,0.0249,0.0217,0.016,0.0135,0.0131,0.0048,0.0061,0.0039,0.0045,-0.0003,0.0004,-0.0005,0.0111,0.0111,0.0111,0.0112,0,0,0.0426,0.0456,0.0448,0.0457,0.0439,0.0442,0.0405,0.0376,0.0346,0.0283,0.0233,0.0168,0.0127,0.0103,0.0071,0.0011,-0.0058,-0.0009,-0.0012,0.0004,-0.017,-0.0181,-0.0192,-0.0112,-0.0115,-0.0117,-0.0127,0,0.0426,0.0451,0.045,0.0452,0.0468,0.0439,0.0415,0.0376,0.0332,0.0283,0.021,0.0163,0.012,0.0089,0.0012,-0.0031,-0.009,-0.005,-0.0135,-0.0135,-0.0134,-0.0207,-0.0182,-0.0193,-0.0136,-0.0137,-0.0138,0,0.0426,0.0444,0.046,0.0473,0.0475,0.0459,0.0418,0.0395,0.0326,0.0288,0.0206,0.0162,0.0073,0.0038,-0.009,-0.0068,-0.013,-0.0166,-0.0168,-0.0185,-0.0168,-0.0145,-0.0212,-0.0154,-0.0153,-0.0152,-0.0151,0,0.042,0.0444,0.0458,0.046,0.0469,0.0447,0.0432,0.038,0.0372,0.0283,0.027,0.0148,0.0108,-0.0016,-0.0097,-0.0111,-0.0216,-0.0242,-0.0303,-0.03,-0.0297,-0.0292,-0.0355,-0.0355,-0.0355,-0.0355,-0.0355,0,0.0423,0.0431,0.0458,0.0462,0.0474,0.0457,0.0444,0.0412,0.0373,0.038,0.0266,0.0265,0.0082,0.0012,-0.0092,-0.0213,-0.0222,-0.0317,-0.0328,-0.0296,-0.0291,-0.0278,-0.0269,-0.0355,-0.0355,-0.0355,-0.0355,0,0.0412,0.0436,0.0446,0.0454,0.0476,0.0462,0.0483,0.0487,0.0434,0.0439,0.0416,0.034,0.025,0.0104,-0.0053,-0.0181,-0.0301,-0.0339,-0.0253,-0.0258,-0.0334,-0.0326,-0.0429,-0.043,-0.0431,-0.0432,-0.0432,0,0.0414,0.0429,0.0443,0.0477,0.0481,0.0493,0.053,0.0507,0.0523,0.0515,0.0533,0.0455,0.0437,0.021,-0.0035,-0.0234,-0.0259,-0.0358,-0.0412,-0.0354,-0.0354,-0.0344,-0.0334,-0.0383,-0.0383,-0.0383,-0.0384,0,0.0414,0.0402,0.0416,0.0492,0.0533,0.0587,0.0626,0.0661,0.0653,0.0692,0.0746,0.0741,0.0511,0.0297,-0.0017,-0.0146,-0.0338,-0.0369,-0.0356,-0.0377,-0.0315,-0.0313,-0.0305,-0.0385,-0.0385,-0.0385,-0.0384,-0.0384,0.0403,0.041,0.0447,0.0518,0.0567,0.0651,0.0722,0.0796,0.0875,0.093,0.0909,0.0878,0.0569,0.0165,-0.0056,-0.0313,-0.0325,-0.0437,-0.0435,-0.0433,-0.0436,-0.0381,-0.0458,-0.0458,-0.0458,-0.0458,-0.0458,0,0.0401,0.0443,0.0509,0.0575,0.0628,0.0663,0.0784,0.0879,0.1013,0.1029,0.1071,0.0784,0.0528,0.0228,-0.0165,-0.0411,-0.0409,-0.046,-0.0422,-0.042,-0.0418,-0.0419,-0.0437,-0.0437,-0.0438,-0.0438,0,0,0.0423,0.0472,0.0517,0.0618,0.0671,0.0788,0.0867,0.1029,0.1075,0.1136,0.1072,0.092,0.0536,0.0233,-0.0067,-0.0245,-0.0268,-0.0266,-0.0263,-0.0181,-0.0176,-0.0391,-0.0388,0,0,0,0,0]}],[{"header":{"parameterUnit":"m.s-1","parameterCategory":2,"la1":30.2991,"la2":30.254,"lo1":-89.0895,"lo2":-89.0444,"dy":0.0017,"dx":0.0017,"nx":28,"ny":28,"refTime":"2024-07-27T21:00:00:Z","depth":"4","parameterNumber":2,"parameterNumberName":"U-component_of_CURRENTS"},"data":[0,0,0,0,0,0,0,0,0,0,0,0,0,0,0,0,0,0,0,0,0,0,0,0,0,0,0,0,0,0,0,0,0,0,0,0,0,0,0,0,0,0,0,0,0,0,0,0,0,0,0,0,0,0,0,0,0,0,0.0235,0.0235,0,0.0251,0.0252,0.0252,0.0273,0.0273,0.0273,0.0274,0.027,0.0269,0.0269,0,0,0,0,0,0,0,0,0,0,0,0,0,0.0214,0.0214,0.0235,0.0235,0.0235,0.0251,0.0252,0.0252,0.0273,0.0273,0.0273,0.0274,0.027,0.027,0.0269,0,0,0,0,0,0,0,0,0,0,0,0,0,0.0226,0.0214,0.0235,0.0247,0.0249,0.0251,0.0252,0.0252,0.0273,0.0273,0.0274,0.0274,0.027,0.027,0.0269,0.0257,0,0,0.0267,0.0267,0,0,0,0,0,0,0,0,0.0226,0.0227,0.0245,0.0247,0.0248,0.026,0.0243,0.0252,0.0273,0.0264,0.0274,0.0274,0.0264,0.0264,0.0267,0.0257,0.0257,0.0267,0.0267,0.0267,0.0267,0,0,0,0,0,0,0,0.0225,0.0227,0.0242,0.0246,0.0247,0.0249,0.0251,0.0245,0.0262,0.0265,0.0266,0.0267,0.0265,0.0268,0.0267,0.0257,0.0267,0.0267,0.0266,0.0266,0.0249,0.0249,0,0,0,0,0,0,0.0222,0.0226,0.0242,0.0243,0.0237,0.0249,0.0252,0.0256,0.0262,0.0263,0.0267,0.0268,0.0268,0.0268,0.0267,0.0273,0.0267,0.0266,0.0266,0.0249,0.0249,0.0249,0,0,0,0,0,0,0.0221,0.0223,0.0241,0.0234,0.0236,0.0249,0.0254,0.0256,0.0272,0.0264,0.0265,0.0281,0.0269,0.0268,0.0271,0.0272,0.0266,0.0265,0.025,0.0249,0.0249,0.0272,0,0,0,0,0,0,0.0221,0.0223,0.0234,0.0234,0.0237,0.0253,0.0253,0.0256,0.0271,0.0273,0.0276,0.0276,0.0269,0.0272,0.0271,0.0271,0.0265,0.025,0.0249,0.0249,0.0272,0.0273,0.0274,0,0,0,0,0,0.022,0.023,0.0235,0.0237,0.0249,0.0253,0.0256,0.0266,0.0271,0.0281,0.0281,0.0276,0.0269,0.0272,0.027,0.0271,0.025,0.025,0.0249,0.0271,0.0273,0.0274,0,0,0,0,0,0,0.0223,0.0233,0.0238,0.0251,0.0257,0.0257,0.027,0.0273,0.0281,0.0287,0.0278,0.0278,0.0279,0.0271,0.0274,0.0264,0.0257,0.0256,0.0274,0.0275,0.0276,0.0292,0.0265,0,0,0,0,0,0.0229,0.0243,0.0247,0.0258,0.0264,0.0269,0.0276,0.0281,0.0283,0.0289,0.0291,0.0285,0.0273,0.0273,0.0266,0.0264,0.0266,0.0261,0.0262,0.0263,0.0274,0.0255,0.0256,0.0248,0.0248,0.0248,0,0,0.023,0.024,0.0246,0.026,0.0268,0.0279,0.0275,0.0289,0.0298,0.0285,0.0305,0.0292,0.0274,0.0271,0.027,0.0267,0.0272,0.0263,0.0264,0.0275,0.0255,0.0255,0.0256,0.0248,0.0248,0.0248,0,0,0.0238,0.0253,0.0268,0.0277,0.0293,0.0295,0.0301,0.031,0.032,0.033,0.0316,0.0307,0.0304,0.0286,0.0275,0.0277,0.0278,0.0273,0.0294,0.0275,0.0275,0.0276,0.0308,0.0311,0.0274,0.0274,0.0274,0,0.0242,0.0261,0.0271,0.0289,0.0301,0.0303,0.0319,0.0325,0.0334,0.0342,0.0343,0.0326,0.0309,0.0291,0.0291,0.028,0.0288,0.0291,0.0277,0.0277,0.0277,0.031,0.0313,0.0275,0.0275,0.0275,0.0275,0,0.0258,0.0279,0.0289,0.0314,0.0327,0.034,0.0348,0.0364,0.0374,0.0377,0.0376,0.0351,0.0342,0.0326,0.0312,0.0299,0.0314,0.028,0.0276,0.028,0.0314,0.0317,0.0277,0.0276,0.0276,0.0276,0,0,0.0248,0.0293,0.0298,0.032,0.0343,0.0355,0.0374,0.039,0.041,0.0408,0.0425,0.039,0.0383,0.0369,0.0339,0.0321,0.0332,0.0308,0.0307,0.0348,0.0334,0.0396,0.0406,0.0295,0.0295,0.0295,0.0369,0,0.0259,0.0298,0.0318,0.0353,0.0372,0.0389,0.0413,0.0428,0.0439,0.0457,0.0427,0.043,0.0395,0.0392,0.0366,0.0339,0.0337,0.0318,0.0319,0.0321,0.0379,0.0409,0.0294,0.0371,0.0372,0.0372,0.0372,0,0.0267,0.0294,0.0335,0.0385,0.0397,0.0425,0.0466,0.0485,0.0503,0.0511,0.0501,0.0486,0.0466,0.0429,0.0399,0.0391,0.0373,0.0351,0.0352,0.0404,0.0387,0.0358,0.0378,0.0377,0.0377,0.0377,0.0376,0,0.0255,0.0307,0.0344,0.036,0.0413,0.0446,0.0478,0.0509,0.053,0.0547,0.0562,0.0536,0.0536,0.0491,0.0457,0.043,0.0436,0.0386,0.0431,0.0437,0.0347,0.0345,0.0368,0.0367,0.0367,0.0367,0.0367,0,0.0256,0.0286,0.0351,0.0371,0.0425,0.0464,0.0517,0.0542,0.0578,0.0592,0.0592,0.0586,0.0549,0.0543,0.0493,0.0498,0.0467,0.0459,0.0458,0.036,0.0358,0.0351,0.0349,0.037,0.0369,0.0369,0.0368,0,0.0239,0.0279,0.0321,0.0391,0.0422,0.0462,0.0543,0.057,0.0614,0.0631,0.0639,0.0648,0.0656,0.064,0.0596,0.0569,0.0544,0.0547,0.0502,0.0492,0.0554,0.0551,0.0616,0.0619,0.0621,0.0623,0.0625,0,0.0235,0.0257,0.0331,0.0363,0.0404,0.0472,0.0515,0.0576,0.0589,0.0642,0.0633,0.0689,0.0684,0.0701,0.0671,0.0662,0.063,0.0642,0.0549,0.0587,0.0578,0.0572,0.0566,0.0628,0.0629,0.0629,0.063,0,0.0219,0.025,0.0283,0.035,0.0405,0.0451,0.051,0.0524,0.0574,0.0618,0.0637,0.0669,0.0711,0.071,0.0751,0.0702,0.0645,0.0666,0.0659,0.0571,0.0602,0.059,0.0582,0.0638,0.0637,0.0636,0.0636,0,0.0207,0.0224,0.0275,0.0331,0.0393,0.0422,0.0455,0.0493,0.0529,0.0588,0.0586,0.0642,0.0686,0.0733,0.0726,0.0753,0.0723,0.068,0.0671,0.0662,0.0644,0.0689,0.077,0,0,0,0,0,0.0191,0.0212,0.0257,0.0309,0.0364,0.0398,0.0447,0.047,0.0516,0.0528,0.0567,0.0598,0.0666,0.0688,0.0725,0.0743,0.0717,0.0785,0.0658,0.0683,0.0674,0.0649,0,0,0,0,0,0,0.0182,0.022,0.0241,0.0284,0.0314,0.0362,0.039,0.0413,0.0425,0.048,0.0515,0.0583,0.0644,0.064,0.0714,0.0728,0.0646,0.0833,0.0833,0.0688,0.068,0.0672,0.0644,0,0,0,0,0]},{"header":{"parameterUnit":"m.s-1","parameterCategory":2,"la1":30.2991,"la2":30.254,"lo1":-89.0895,"lo2":-89.0444,"dy":0.0017,"dx":0.0017,"nx":28,"ny":28,"refTime":"2024-07-27T21:00:00:Z","depth":"4","parameterNumber":3,"parameterNumberName":"V-component_of_CURRENTS"},"data":[0,0,0,0,0,0,0,0,0,0,0,0,0,0,0,0,0,0,0,0,0,0,0,0,0,0,0,0,0,0,0,0,0,0,0,0,0,0,0,0,0,0,0,0,0,0,0,0,0,0,0,0,0,0,0,0,0,0,0.0008,0.0008,0,-0.0053,-0.0053,-0.0054,-0.0079,-0.0078,-0.0078,-0.0078,-0.0159,-0.0162,-0.0164,0,0,0,0,0,0,0,0,0,0,0,0,0,0.0068,0.0068,0.0008,0.0008,0.0007,-0.0052,-0.0053,-0.0054,-0.0079,-0.0078,-0.0078,-0.0078,-0.0159,-0.0161,-0.0164,0,0,0,0,0,0,0,0,0,0,0,0,0,0.0028,0.0067,0.0008,-0.0012,-0.0014,-0.0052,-0.0053,-0.0055,-0.0079,-0.0078,-0.0078,-0.0078,-0.0158,-0.0161,-0.0165,-0.0193,0,0,-0.0175,-0.0177,0,0,0,0,0,0,0,0,0.003,0.0025,-0.0008,-0.001,-0.0013,-0.0057,-0.0062,-0.0102,-0.0079,-0.0055,-0.0078,-0.0078,-0.0127,-0.0133,-0.0146,-0.0197,-0.0201,-0.0176,-0.0178,-0.0179,-0.018,0,0,0,0,0,0,0,0.0033,0.0028,-0.0017,-0.0009,-0.0012,-0.003,-0.0035,-0.007,-0.0093,-0.0057,-0.0059,-0.0064,-0.0128,-0.0142,-0.0148,-0.0202,-0.0176,-0.0179,-0.0181,-0.0182,-0.0297,-0.0298,0,0,0,0,0,0,0.0043,0.003,-0.0015,-0.0018,0.0011,-0.0031,-0.0037,-0.0044,-0.0092,-0.0099,-0.0065,-0.0065,-0.0136,-0.0144,-0.0151,-0.0206,-0.0179,-0.0183,-0.0185,-0.0297,-0.0298,-0.0299,0,0,0,0,0,0,0.0045,0.004,-0.0012,0.0005,-0.0002,-0.0032,-0.004,-0.0045,-0.0067,-0.0098,-0.0105,-0.0081,-0.0136,-0.0146,-0.0194,-0.0208,-0.0184,-0.0188,-0.0295,-0.0297,-0.0298,-0.0304,0,0,0,0,0,0,0.0047,0.0041,0.0037,0.0006,-0.0003,-0.0037,-0.004,-0.0047,-0.007,-0.0072,-0.0114,-0.0121,-0.0137,-0.0188,-0.0197,-0.0213,-0.019,-0.0294,-0.0296,-0.0298,-0.0303,-0.0306,-0.0308,0,0,0,0,0,0.0049,0.0045,0.0037,0.0031,-0.0006,-0.0038,-0.0044,-0.0065,-0.0071,-0.0083,-0.0116,-0.012,-0.0205,-0.0192,-0.0203,-0.022,-0.0293,-0.0296,-0.0298,-0.0302,-0.0305,-0.0308,0,0,0,0,0,0,0.0066,0.0041,0.0032,0.002,-0.0008,-0.0041,-0.0054,-0.0071,-0.0107,-0.0111,-0.0139,-0.0149,-0.0196,-0.0209,-0.0194,-0.0257,-0.0247,-0.0252,-0.0247,-0.0251,-0.0253,-0.0243,-0.0193,0,0,0,0,0,0.0069,0.006,0.003,0.0017,0.0005,-0.0027,-0.0043,-0.006,-0.0094,-0.0109,-0.0142,-0.0176,-0.0212,-0.0232,-0.0265,-0.0304,-0.0312,-0.0319,-0.0322,-0.0324,-0.0322,-0.0339,-0.0343,-0.0305,-0.0305,-0.0305,0,0,0.0072,0.0056,0.0051,0.002,-0.0003,-0.0025,-0.0037,-0.0064,-0.0089,-0.0114,-0.0161,-0.0192,-0.0226,-0.0269,-0.029,-0.0281,-0.0343,-0.0326,-0.0328,-0.0325,-0.0342,-0.0345,-0.0348,-0.0307,-0.0307,-0.0306,0,0,0.0072,0.0058,0.005,0.0028,-0.0005,-0.0027,-0.0036,-0.0078,-0.0102,-0.0151,-0.0174,-0.0215,-0.027,-0.0297,-0.0317,-0.0355,-0.0359,-0.0364,-0.0367,-0.0383,-0.0386,-0.0388,-0.0417,-0.0422,-0.0361,-0.0361,-0.0361,0,0.0078,0.0061,0.0041,0.0025,0.0007,-0.0028,-0.0047,-0.0079,-0.0134,-0.0159,-0.0165,-0.0253,-0.0283,-0.0332,-0.0345,-0.0361,-0.0371,-0.0351,-0.0385,-0.0387,-0.039,-0.0418,-0.0424,-0.0361,-0.0361,-0.0361,-0.0361,0,0.0071,0.0056,0.0047,0.0017,-0.0006,-0.0029,-0.0071,-0.0105,-0.0139,-0.0173,-0.0234,-0.0277,-0.032,-0.0342,-0.0357,-0.0393,-0.0396,-0.0388,-0.0373,-0.0394,-0.0423,-0.0428,-0.0362,-0.0362,-0.0362,-0.0361,0,0,0.0086,0.0052,0.0047,0.0033,-0.0012,-0.0033,-0.0077,-0.0128,-0.0155,-0.0212,-0.0249,-0.0319,-0.0334,-0.0357,-0.0381,-0.0401,-0.0437,-0.0399,-0.04,-0.042,-0.048,-0.0438,-0.044,-0.0428,-0.0428,-0.0429,-0.0498,0,0.0084,0.0061,0.004,0.0009,-0.0009,-0.0049,-0.0084,-0.0134,-0.0179,-0.0224,-0.0276,-0.0313,-0.0341,-0.035,-0.0383,-0.042,-0.0449,-0.0419,-0.0463,-0.0465,-0.0418,-0.0444,-0.0431,-0.0502,-0.0504,-0.0504,-0.0505,0,0.0078,0.0064,0.0041,0.0004,-0.0007,-0.0026,-0.0084,-0.0118,-0.0186,-0.0217,-0.0264,-0.0296,-0.0348,-0.0352,-0.0435,-0.0411,-0.0447,-0.0477,-0.048,-0.0438,-0.0431,-0.0475,-0.0515,-0.0514,-0.0513,-0.0513,-0.0512,0,0.0089,0.0059,0.0042,0.003,-0.0014,-0.0029,-0.0053,-0.0115,-0.0143,-0.0194,-0.0208,-0.0283,-0.0301,-0.0363,-0.0431,-0.0427,-0.0513,-0.0513,-0.0518,-0.0516,-0.053,-0.0526,-0.0566,-0.0566,-0.0566,-0.0565,-0.0565,0,0.0087,0.0072,0.0053,0.0044,0.0026,-0.0007,-0.0033,-0.0068,-0.0109,-0.0136,-0.0186,-0.0214,-0.0299,-0.036,-0.0428,-0.049,-0.0512,-0.0524,-0.0528,-0.0534,-0.053,-0.0535,-0.053,-0.0568,-0.0567,-0.0567,-0.0567,0,0.0092,0.0077,0.0061,0.0036,0.0031,0.0021,-0.0003,-0.0024,-0.0052,-0.0082,-0.0085,-0.0161,-0.023,-0.0323,-0.0424,-0.0468,-0.0539,-0.0555,-0.0566,-0.0568,-0.0538,-0.0533,-0.0571,-0.057,-0.0569,-0.0569,-0.0568,0,0.0092,0.0085,0.0069,0.0067,0.006,0.0048,0.0036,0.0005,-0.0011,-0.0055,-0.0067,-0.0125,-0.0182,-0.0293,-0.0397,-0.0517,-0.0526,-0.0564,-0.0547,-0.0537,-0.0537,-0.0534,-0.053,-0.0567,-0.0566,-0.0566,-0.0566,0,0.0095,0.0091,0.0081,0.0086,0.0082,0.007,0.006,0.0058,0.0022,0.0,-0.0029,-0.0087,-0.0165,-0.0271,-0.0353,-0.0446,-0.0539,-0.0555,-0.0558,-0.0542,-0.0532,-0.0533,-0.053,-0.0563,-0.0564,-0.0564,-0.0564,0,0.0101,0.0099,0.0096,0.0097,0.0105,0.0102,0.0085,0.0075,0.0061,0.0026,0.0009,-0.0071,-0.0131,-0.0236,-0.0327,-0.0395,-0.0413,-0.0429,-0.0438,-0.0442,-0.0377,-0.0344,-0.0322,0,0,0,0,0,0.0103,0.0102,0.0108,0.0107,0.0123,0.0125,0.0105,0.0084,0.006,0.0058,0.0042,-0.0026,-0.0132,-0.0198,-0.0254,-0.0329,-0.0441,-0.0399,-0.0468,-0.0547,-0.055,-0.049,0,0,0,0,0,0,0.0098,0.0105,0.0108,0.0132,0.0144,0.0148,0.0141,0.0112,0.0106,0.0081,0.0024,-0.0014,-0.0128,-0.008,-0.024,-0.0268,-0.0315,-0.0459,-0.046,-0.0545,-0.0548,-0.0551,-0.049,0,0,0,0,0]}]]